Time,TemperatureF,DewpointF,PressureIn,WindDirection,WindDirectionDegrees,WindSpeedMPH,WindSpeedGustMPH,Humidity,HourlyPrecipIn,Conditions,Clouds,dailyrainin,SolarRadiationWatts/m^2,SoftwareType,DateUTC
2013-01-17 00:02:00,31.4,23.4,30.08,N/A,-737280,0.0,-999.0,72,0.00,,,0.00,90,Wunderground v.1.15,2013-01-17 05:02:00,
2013-01-17 00:07:00,31.4,23.4,30.08,N/A,-737280,0.0,-999.0,72,0.00,,,0.00,90,Wunderground v.1.15,2013-01-17 05:07:00,
2013-01-17 00:12:00,31.4,23.4,30.08,N/A,-737280,0.0,-999.0,72,0.00,,,0.00,90,Wunderground v.1.15,2013-01-17 05:12:00,
2013-01-17 00:17:00,31.4,23.4,30.08,N/A,-737280,0.0,-999.0,72,0.00,,,0.00,90,Wunderground v.1.15,2013-01-17 05:17:00,
2013-01-17 00:22:00,31.4,23.4,30.08,N/A,-737280,0.0,-999.0,72,0.00,,,0.00,90,Wunderground v.1.15,2013-01-17 05:22:00,
2013-01-17 00:27:00,31.4,23.4,30.08,N/A,-737280,0.0,-999.0,72,0.00,,,0.00,90,Wunderground v.1.15,2013-01-17 05:27:00,
2013-01-17 00:32:00,31.4,23.4,30.08,N/A,-737280,0.0,-999.0,72,0.00,,,0.00,90,Wunderground v.1.15,2013-01-17 05:32:00,
2013-01-17 00:37:00,31.4,23.4,30.08,N/A,-737280,0.0,-999.0,72,0.00,,,0.00,90,Wunderground v.1.15,2013-01-17 05:37:00,
2013-01-17 00:42:00,31.4,23.4,30.08,N/A,-737280,0.0,-999.0,72,0.00,,,0.00,90,Wunderground v.1.15,2013-01-17 05:42:00,
2013-01-17 00:47:00,32.6,23.2,30.08,N/A,-737280,0.0,-999.0,68,0.00,,,0.00,91,Wunderground v.1.15,2013-01-17 05:47:00,
2013-01-17 00:52:00,32.6,23.2,30.08,N/A,-737280,0.0,-999.0,68,0.00,,,0.00,91,Wunderground v.1.15,2013-01-17 05:52:00,
2013-01-17 00:57:00,32.6,23.2,30.08,N/A,-737280,0.0,-999.0,68,0.00,,,0.00,91,Wunderground v.1.15,2013-01-17 05:57:00,
2013-01-17 11:20:00,33.1,22.6,30.08,North,32767,0.0,0.0,65,0.00,,,0.00,141,Wunderground v.1.15,2013-01-17 16:20:00,
2013-01-17 11:24:00,33.1,23.0,30.08,North,32767,0.0,0.0,66,0.00,,,0.00,269,Wunderground v.1.15,2013-01-17 16:24:00,
2013-01-17 11:29:00,33.1,22.6,30.08,North,32767,0.0,0.0,65,0.00,,,0.00,343,Wunderground v.1.15,2013-01-17 16:29:00,
2013-01-17 11:34:00,33.2,22.7,30.07,North,32767,0.0,0.0,65,0.00,,,0.00,169,Wunderground v.1.15,2013-01-17 16:34:00,
2013-01-17 11:39:00,33.3,23.2,30.07,North,32767,0.0,0.0,66,0.00,,,0.00,162,Wunderground v.1.15,2013-01-17 16:39:00,
2013-01-17 11:44:00,33.7,22.8,30.06,North,32767,0.0,0.0,64,0.00,,,0.00,151,Wunderground v.1.15,2013-01-17 16:44:00,
2013-01-17 11:49:00,33.7,23.2,30.06,North,32767,0.0,0.0,65,0.00,,,0.00,127,Wunderground v.1.15,2013-01-17 16:49:00,
2013-01-17 11:54:00,33.9,23.4,30.06,North,32767,0.0,0.0,65,0.00,,,0.00,162,Wunderground v.1.15,2013-01-17 16:54:00,
2013-01-17 11:59:00,34.2,22.5,30.06,North,32767,0.0,0.0,62,0.00,,,0.00,141,Wunderground v.1.15,2013-01-17 16:59:00,
2013-01-17 12:04:00,34.4,22.7,30.06,North,32767,0.0,0.0,62,0.00,,,0.00,274,Wunderground v.1.15,2013-01-17 17:04:00,
2013-01-17 12:09:00,34.3,22.6,30.06,North,32767,0.0,0.0,62,0.00,,,0.00,466,Wunderground v.1.15,2013-01-17 17:09:00,
2013-01-17 12:14:00,34.4,22.7,30.05,North,32767,0.0,0.0,62,0.00,,,0.00,482,Wunderground v.1.15,2013-01-17 17:14:00,
2013-01-17 12:19:00,34.6,22.9,30.05,North,32767,0.0,0.0,62,0.00,,,0.00,476,Wunderground v.1.15,2013-01-17 17:19:00,
2013-01-17 12:24:00,34.9,23.2,30.05,North,32767,0.0,0.0,62,0.00,,,0.00,374,Wunderground v.1.15,2013-01-17 17:24:00,
2013-01-17 12:29:00,35.3,22.8,30.04,North,32767,0.0,0.0,60,0.00,,,0.00,425,Wunderground v.1.15,2013-01-17 17:29:00,
2013-01-17 12:34:00,35.6,22.7,30.04,North,32767,0.0,0.0,59,0.00,,,0.00,439,Wunderground v.1.15,2013-01-17 17:34:00,
2013-01-17 12:39:00,35.6,22.7,30.04,North,32767,0.0,0.0,59,0.00,,,0.00,446,Wunderground v.1.15,2013-01-17 17:39:00,
2013-01-17 12:44:00,35.7,23.2,30.04,North,32767,0.0,0.0,60,0.00,,,0.00,320,Wunderground v.1.15,2013-01-17 17:44:00,
2013-01-17 12:49:00,36.1,23.1,30.03,North,32767,0.0,0.0,59,0.00,,,0.00,213,Wunderground v.1.15,2013-01-17 17:49:00,
2013-01-17 12:54:00,36.4,23.4,30.03,North,32767,0.0,0.0,59,0.00,,,0.00,410,Wunderground v.1.15,2013-01-17 17:54:00,
2013-01-17 12:59:00,36.6,23.2,30.03,North,32767,0.0,0.0,58,0.00,,,0.00,475,Wunderground v.1.15,2013-01-17 17:59:00,
2013-01-17 13:04:00,36.8,24.2,30.03,North,32767,0.0,0.0,60,0.00,,,0.00,313,Wunderground v.1.15,2013-01-17 18:04:00,
2013-01-17 13:09:00,36.6,22.8,30.03,North,32767,0.0,0.0,57,0.00,,,0.00,267,Wunderground v.1.15,2013-01-17 18:09:00,
2013-01-17 13:14:00,36.2,22.4,30.03,North,32767,0.0,0.0,57,0.00,,,0.00,76,Wunderground v.1.15,2013-01-17 18:14:00,
2013-01-17 13:19:00,35.8,22.9,30.03,North,32767,0.0,0.0,59,0.00,,,0.00,485,Wunderground v.1.15,2013-01-17 18:19:00,
2013-01-17 13:24:00,35.8,22.9,30.02,North,32767,0.0,0.0,59,0.00,,,0.00,534,Wunderground v.1.15,2013-01-17 18:24:00,
2013-01-17 13:29:00,35.9,23.0,30.02,North,32767,0.0,0.0,59,0.00,,,0.00,376,Wunderground v.1.15,2013-01-17 18:29:00,
2013-01-17 13:35:00,36.0,22.6,30.02,North,32767,0.0,0.0,58,0.00,,,0.00,388,Wunderground v.1.15,2013-01-17 18:35:00,
2013-01-17 13:40:00,35.6,21.9,30.02,North,32767,0.0,0.0,57,0.00,,,0.00,288,Wunderground v.1.15,2013-01-17 18:40:00,
2013-01-17 13:45:00,35.5,23.0,30.01,North,32767,0.0,0.0,60,0.00,,,0.00,325,Wunderground v.1.15,2013-01-17 18:45:00,
2013-01-17 13:50:00,35.8,23.7,30.01,North,32767,0.0,0.0,61,0.00,,,0.00,272,Wunderground v.1.15,2013-01-17 18:50:00,
2013-01-17 13:55:00,36.2,23.2,30.01,North,32767,0.0,0.0,59,0.00,,,0.00,378,Wunderground v.1.15,2013-01-17 18:55:00,
2013-01-17 14:00:00,36.5,23.5,30.01,North,32767,0.0,0.0,59,0.00,,,0.00,387,Wunderground v.1.15,2013-01-17 19:00:00,
2013-01-17 14:05:00,36.4,22.6,30.01,North,32767,0.0,0.0,57,0.00,,,0.00,188,Wunderground v.1.15,2013-01-17 19:05:00,
2013-01-17 14:10:00,36.2,22.8,30.01,North,32767,0.0,0.0,58,0.00,,,0.00,128,Wunderground v.1.15,2013-01-17 19:10:00,
2013-01-17 14:15:00,36.2,22.8,30.01,North,32767,0.0,0.0,58,0.00,,,0.00,234,Wunderground v.1.15,2013-01-17 19:15:00,
2013-01-17 14:20:00,36.1,22.7,30.01,North,32767,0.0,0.0,58,0.00,,,0.00,376,Wunderground v.1.15,2013-01-17 19:20:00,
2013-01-17 14:25:00,36.2,22.4,30.01,North,32767,0.0,0.0,57,0.00,,,0.00,216,Wunderground v.1.15,2013-01-17 19:25:00,
2013-01-17 14:30:00,36.3,22.1,30.01,North,32767,0.0,0.0,56,0.00,,,0.00,221,Wunderground v.1.15,2013-01-17 19:30:00,
2013-01-17 14:35:00,36.1,21.9,30.00,North,32767,0.0,0.0,56,0.00,,,0.00,137,Wunderground v.1.15,2013-01-17 19:35:00,
2013-01-17 14:40:00,36.0,22.6,30.00,North,32767,0.0,0.0,58,0.00,,,0.00,269,Wunderground v.1.15,2013-01-17 19:40:00,
2013-01-17 14:45:00,35.9,23.0,30.00,North,32767,0.0,0.0,59,0.00,,,0.00,125,Wunderground v.1.15,2013-01-17 19:45:00,
2013-01-17 14:50:00,35.9,23.0,30.00,North,32767,0.0,0.0,59,0.00,,,0.00,253,Wunderground v.1.15,2013-01-17 19:50:00,
2013-01-17 14:55:00,36.1,23.1,30.00,North,32767,0.0,0.0,59,0.00,,,0.00,102,Wunderground v.1.15,2013-01-17 19:55:00,
2013-01-17 15:00:00,36.1,22.7,30.00,North,32767,0.0,0.0,58,0.00,,,0.00,167,Wunderground v.1.15,2013-01-17 20:00:00,
2013-01-17 15:05:00,35.8,22.5,30.00,North,32767,0.0,0.0,58,0.00,,,0.00,83,Wunderground v.1.15,2013-01-17 20:05:00,
2013-01-17 15:10:00,35.5,22.6,30.00,North,32767,0.0,0.0,59,0.00,,,0.00,158,Wunderground v.1.15,2013-01-17 20:10:00,
2013-01-17 15:15:00,35.2,22.7,30.00,North,32767,0.0,0.0,60,0.00,,,0.00,125,Wunderground v.1.15,2013-01-17 20:15:00,
2013-01-17 15:20:00,35.1,22.2,30.00,North,32767,0.0,0.0,59,0.00,,,0.00,60,Wunderground v.1.15,2013-01-17 20:20:00,
2013-01-17 15:25:00,34.8,21.1,30.00,North,32767,0.0,0.0,57,0.00,,,0.00,40,Wunderground v.1.15,2013-01-17 20:25:00,
2013-01-17 15:30:00,34.6,21.3,30.00,North,32767,0.0,0.0,58,0.00,,,0.00,81,Wunderground v.1.15,2013-01-17 20:30:00,
2013-01-17 15:35:00,34.4,19.9,30.00,North,32767,0.0,0.0,55,0.00,,,0.00,54,Wunderground v.1.15,2013-01-17 20:35:00,
2013-01-17 15:40:00,34.3,20.6,30.01,North,32767,0.0,0.0,57,0.00,,,0.00,141,Wunderground v.1.15,2013-01-17 20:40:00,
2013-01-17 15:45:00,34.0,19.1,30.01,North,32767,0.0,0.0,54,0.00,,,0.00,113,Wunderground v.1.15,2013-01-17 20:45:00,
2013-01-17 15:50:00,33.7,19.7,30.01,North,32767,0.0,0.0,56,0.00,,,0.00,67,Wunderground v.1.15,2013-01-17 20:50:00,
2013-01-17 15:55:00,33.5,19.5,30.02,North,32767,0.0,0.0,56,0.00,,,0.00,40,Wunderground v.1.15,2013-01-17 20:55:00,
2013-01-17 16:00:00,33.3,18.9,30.02,North,32767,0.0,0.0,55,0.00,,,0.00,67,Wunderground v.1.15,2013-01-17 21:00:00,
2013-01-17 16:05:00,33.1,18.7,30.02,North,32767,0.0,0.0,55,0.00,,,0.00,51,Wunderground v.1.15,2013-01-17 21:05:00,
2013-01-17 16:10:00,32.8,18.8,30.02,North,32767,0.0,0.0,56,0.00,,,0.00,30,Wunderground v.1.15,2013-01-17 21:10:00,
2013-01-17 16:15:00,32.6,19.0,30.02,North,32767,0.0,0.0,57,0.00,,,0.00,32,Wunderground v.1.15,2013-01-17 21:15:00,
2013-01-17 16:20:00,32.5,19.3,30.02,North,32767,0.0,0.0,58,0.00,,,0.00,39,Wunderground v.1.15,2013-01-17 21:20:00,
2013-01-17 16:25:00,32.4,18.4,30.03,North,32767,0.0,0.0,56,0.00,,,0.00,25,Wunderground v.1.15,2013-01-17 21:25:00,
2013-01-17 16:30:00,32.1,17.7,30.03,North,32767,0.0,0.0,55,0.00,,,0.00,26,Wunderground v.1.15,2013-01-17 21:30:00,
2013-01-17 16:35:00,31.7,18.2,30.04,North,32767,0.0,0.0,57,0.00,,,0.00,40,Wunderground v.1.15,2013-01-17 21:35:00,
2013-01-17 16:40:00,31.4,17.5,30.04,North,32767,0.0,0.0,56,0.00,,,0.00,28,Wunderground v.1.15,2013-01-17 21:40:00,
2013-01-17 16:45:00,31.1,18.0,30.04,North,32767,0.0,0.0,58,0.00,,,0.00,33,Wunderground v.1.15,2013-01-17 21:45:00,
2013-01-17 16:50:00,31.0,18.7,30.05,North,32767,0.0,0.0,60,0.00,,,0.00,32,Wunderground v.1.15,2013-01-17 21:50:00,
2013-01-17 16:55:00,30.8,17.7,30.05,North,32767,0.0,0.0,58,0.00,,,0.00,21,Wunderground v.1.15,2013-01-17 21:55:00,
2013-01-17 17:00:00,30.5,17.1,30.06,North,32767,0.0,0.0,57,0.00,,,0.00,16,Wunderground v.1.15,2013-01-17 22:00:00,
2013-01-17 17:05:00,30.2,17.6,30.06,North,32767,0.0,0.0,59,0.00,,,0.00,18,Wunderground v.1.15,2013-01-17 22:05:00,
2013-01-17 17:10:00,30.0,18.2,30.06,North,32767,0.0,0.0,61,0.00,,,0.00,11,Wunderground v.1.15,2013-01-17 22:10:00,
2013-01-17 17:15:00,29.6,16.6,30.06,North,32767,0.0,0.0,58,0.00,,,0.00,7,Wunderground v.1.15,2013-01-17 22:15:00,
2013-01-17 17:20:00,29.2,16.6,30.07,North,32767,0.0,0.0,59,0.00,,,0.00,5,Wunderground v.1.15,2013-01-17 22:20:00,
2013-01-17 17:25:00,28.8,16.6,30.07,North,32767,0.0,0.0,60,0.00,,,0.00,5,Wunderground v.1.15,2013-01-17 22:25:00,
2013-01-17 17:30:00,28.6,16.1,30.07,North,32767,0.0,0.0,59,0.00,,,0.00,0,Wunderground v.1.15,2013-01-17 22:30:00,
2013-01-17 17:35:00,28.4,16.3,30.07,North,32767,0.0,0.0,60,0.00,,,0.00,0,Wunderground v.1.15,2013-01-17 22:35:00,
2013-01-17 17:40:00,28.1,16.0,30.08,North,32767,0.0,0.0,60,0.00,,,0.00,0,Wunderground v.1.15,2013-01-17 22:40:00,
2013-01-17 17:45:00,27.9,15.4,30.08,North,32767,0.0,0.0,59,0.00,,,0.00,0,Wunderground v.1.15,2013-01-17 22:45:00,
2013-01-17 17:50:00,27.6,15.1,30.08,North,32767,0.0,0.0,59,0.00,,,0.00,0,Wunderground v.1.15,2013-01-17 22:50:00,
2013-01-17 17:55:00,27.4,14.9,30.09,North,32767,0.0,0.0,59,0.00,,,0.00,0,Wunderground v.1.15,2013-01-17 22:55:00,
2013-01-17 18:00:00,27.1,14.7,30.10,North,32767,0.0,0.0,59,0.00,,,0.00,0,Wunderground v.1.15,2013-01-17 23:00:00,
2013-01-17 18:05:00,26.9,14.9,30.11,North,32767,0.0,0.0,60,0.00,,,0.00,0,Wunderground v.1.15,2013-01-17 23:05:00,
2013-01-17 18:11:00,26.9,14.9,30.11,North,32767,0.0,0.0,60,0.00,,,0.00,0,Wunderground v.1.15,2013-01-17 23:11:00,
2013-01-17 18:16:00,26.8,15.1,30.11,North,32767,0.0,0.0,61,0.00,,,0.00,0,Wunderground v.1.15,2013-01-17 23:16:00,
2013-01-17 18:21:00,26.6,14.9,30.11,North,32767,0.0,0.0,61,0.00,,,0.00,0,Wunderground v.1.15,2013-01-17 23:21:00,
2013-01-17 18:26:00,26.4,14.8,30.11,North,32767,0.0,0.0,61,0.00,,,0.00,0,Wunderground v.1.15,2013-01-17 23:26:00,
2013-01-17 18:31:00,26.2,15.3,30.11,North,32767,0.0,0.0,63,0.00,,,0.00,0,Wunderground v.1.15,2013-01-17 23:31:00,
2013-01-17 18:36:00,25.9,14.7,30.12,North,32767,0.0,0.0,62,0.00,,,0.00,0,Wunderground v.1.15,2013-01-17 23:36:00,
2013-01-17 18:41:00,25.6,14.4,30.12,North,32767,0.0,0.0,62,0.00,,,0.00,0,Wunderground v.1.15,2013-01-17 23:41:00,
2013-01-17 18:46:00,25.3,14.8,30.12,North,32767,0.0,0.0,64,0.00,,,0.00,0,Wunderground v.1.15,2013-01-17 23:46:00,
2013-01-17 18:51:00,24.9,14.1,30.12,North,32767,0.0,0.0,63,0.00,,,0.00,0,Wunderground v.1.15,2013-01-17 23:51:00,
2013-01-17 18:56:00,24.7,14.6,30.12,North,32767,0.0,0.0,65,0.00,,,0.00,0,Wunderground v.1.15,2013-01-17 23:56:00,
2013-01-17 19:01:00,24.5,14.8,30.13,North,32767,0.0,0.0,66,0.00,,,0.00,0,Wunderground v.1.15,2013-01-18 00:01:00,
2013-01-17 19:06:00,24.3,14.6,30.13,North,32767,0.0,0.0,66,0.00,,,0.00,0,Wunderground v.1.15,2013-01-18 00:06:00,
2013-01-17 19:11:00,24.1,14.4,30.14,North,32767,0.0,0.0,66,0.00,,,0.00,0,Wunderground v.1.15,2013-01-18 00:11:00,
2013-01-17 19:16:00,23.9,14.5,30.14,North,32767,0.0,0.0,67,0.00,,,0.00,0,Wunderground v.1.15,2013-01-18 00:16:00,
2013-01-17 19:21:00,23.7,14.7,30.14,North,32767,0.0,0.0,68,0.00,,,0.00,0,Wunderground v.1.15,2013-01-18 00:21:00,
2013-01-17 19:26:00,23.5,14.1,30.15,North,32767,0.0,0.0,67,0.00,,,0.00,0,Wunderground v.1.15,2013-01-18 00:26:00,
2013-01-17 19:31:00,23.4,14.4,30.15,North,32767,0.0,0.0,68,0.00,,,0.00,0,Wunderground v.1.15,2013-01-18 00:31:00,
2013-01-17 19:36:00,23.3,14.0,30.16,North,32767,0.0,0.0,67,0.00,,,0.00,0,Wunderground v.1.15,2013-01-18 00:36:00,
2013-01-17 19:41:00,23.1,13.8,30.16,North,32767,0.0,0.0,67,0.00,,,0.00,0,Wunderground v.1.15,2013-01-18 00:41:00,
2013-01-17 19:46:00,22.9,13.6,30.16,North,32767,0.0,0.0,67,0.00,,,0.00,0,Wunderground v.1.15,2013-01-18 00:46:00,
2013-01-17 19:51:00,22.7,13.0,30.16,North,32767,0.0,0.0,66,0.00,,,0.00,0,Wunderground v.1.15,2013-01-18 00:51:00,
2013-01-17 19:56:00,22.5,12.8,30.17,North,32767,0.0,0.0,66,0.00,,,0.00,0,Wunderground v.1.15,2013-01-18 00:56:00,
2013-01-17 20:01:00,22.3,12.3,30.17,North,32767,0.0,0.0,65,0.00,,,0.00,0,Wunderground v.1.15,2013-01-18 01:01:00,
2013-01-17 20:06:00,22.1,12.5,30.17,North,32767,0.0,0.0,66,0.00,,,0.00,0,Wunderground v.1.15,2013-01-18 01:06:00,
2013-01-17 20:11:00,22.0,12.4,30.17,North,32767,0.0,0.0,66,0.00,,,0.00,0,Wunderground v.1.15,2013-01-18 01:11:00,
2013-01-17 20:16:00,21.8,12.2,30.17,North,32767,0.0,0.0,66,0.00,,,0.00,0,Wunderground v.1.15,2013-01-18 01:16:00,
2013-01-17 20:21:00,21.8,11.5,30.18,North,32767,0.0,0.0,64,0.00,,,0.00,0,Wunderground v.1.15,2013-01-18 01:21:00,
2013-01-17 20:26:00,21.6,11.3,30.18,North,32767,0.0,0.0,64,0.00,,,0.00,0,Wunderground v.1.15,2013-01-18 01:26:00,
2013-01-17 20:31:00,21.5,11.2,30.18,North,32767,0.0,0.0,64,0.00,,,0.00,0,Wunderground v.1.15,2013-01-18 01:31:00,
2013-01-17 20:36:00,21.3,10.7,30.18,North,32767,0.0,0.0,63,0.00,,,0.00,0,Wunderground v.1.15,2013-01-18 01:36:00,
2013-01-17 20:41:00,21.2,10.2,30.18,North,32767,0.0,0.0,62,0.00,,,0.00,0,Wunderground v.1.15,2013-01-18 01:41:00,
2013-01-17 20:46:00,21.0,9.6,30.18,North,32767,0.0,0.0,61,0.00,,,0.00,0,Wunderground v.1.15,2013-01-18 01:46:00,
2013-01-17 20:51:00,20.9,9.2,30.18,North,32767,0.0,0.0,60,0.00,,,0.00,0,Wunderground v.1.15,2013-01-18 01:51:00,
2013-01-17 20:56:00,20.7,8.6,30.18,North,32767,0.0,0.0,59,0.00,,,0.00,0,Wunderground v.1.15,2013-01-18 01:56:00,
2013-01-17 21:01:00,20.6,8.5,30.18,North,32767,0.0,0.0,59,0.00,,,0.00,0,Wunderground v.1.15,2013-01-18 02:01:00,
2013-01-17 21:06:00,20.4,8.3,30.19,North,32767,0.0,0.0,59,0.00,,,0.00,0,Wunderground v.1.15,2013-01-18 02:06:00,
2013-01-17 21:11:00,20.3,8.2,30.19,North,32767,0.0,0.0,59,0.00,,,0.00,0,Wunderground v.1.15,2013-01-18 02:11:00,
2013-01-17 21:16:00,20.3,7.9,30.19,North,32767,0.0,0.0,58,0.00,,,0.00,0,Wunderground v.1.15,2013-01-18 02:16:00,
2013-01-17 21:21:00,20.2,7.8,30.19,North,32767,0.0,0.0,58,0.00,,,0.00,0,Wunderground v.1.15,2013-01-18 02:21:00,
2013-01-17 21:26:00,20.2,7.8,30.19,North,32767,0.0,0.0,58,0.00,,,0.00,0,Wunderground v.1.15,2013-01-18 02:26:00,
2013-01-17 21:31:00,20.3,7.5,30.19,North,32767,0.0,0.0,57,0.00,,,0.00,0,Wunderground v.1.15,2013-01-18 02:31:00,
2013-01-17 21:36:00,20.3,7.9,30.20,North,32767,0.0,0.0,58,0.00,,,0.00,0,Wunderground v.1.15,2013-01-18 02:36:00,
2013-01-17 21:41:00,20.2,8.1,30.20,North,32767,0.0,0.0,59,0.00,,,0.00,0,Wunderground v.1.15,2013-01-18 02:41:00,
2013-01-17 21:46:00,20.2,7.8,30.20,North,32767,0.0,0.0,58,0.00,,,0.00,0,Wunderground v.1.15,2013-01-18 02:46:00,
2013-01-17 21:51:00,20.1,8.1,30.20,North,32767,0.0,0.0,59,0.00,,,0.00,0,Wunderground v.1.15,2013-01-18 02:51:00,
2013-01-17 21:56:00,20.0,8.3,30.20,North,32767,0.0,0.0,60,0.00,,,0.00,0,Wunderground v.1.15,2013-01-18 02:56:00,
2013-01-17 22:02:00,19.9,8.2,30.20,North,32767,0.0,0.0,60,0.00,,,0.00,0,Wunderground v.1.15,2013-01-18 03:02:00,
2013-01-17 22:07:00,19.8,8.1,30.20,North,32767,0.0,0.0,60,0.00,,,0.00,0,Wunderground v.1.15,2013-01-18 03:07:00,
2013-01-17 22:12:00,19.8,8.5,30.20,North,32767,0.0,0.0,61,0.00,,,0.00,0,Wunderground v.1.15,2013-01-18 03:12:00,
2013-01-17 22:17:00,19.7,8.0,30.20,North,32767,0.0,0.0,60,0.00,,,0.00,0,Wunderground v.1.15,2013-01-18 03:17:00,
2013-01-17 22:22:00,19.7,8.0,30.20,North,32767,0.0,0.0,60,0.00,,,0.00,0,Wunderground v.1.15,2013-01-18 03:22:00,
2013-01-17 22:27:00,19.8,9.2,30.20,North,32767,0.0,0.0,63,0.00,,,0.00,0,Wunderground v.1.15,2013-01-18 03:27:00,
2013-01-17 22:32:00,19.8,8.9,30.19,North,32767,0.0,0.0,62,0.00,,,0.00,0,Wunderground v.1.15,2013-01-18 03:32:00,
2013-01-17 22:37:00,19.9,9.0,30.20,North,32767,0.0,0.0,62,0.00,,,0.00,0,Wunderground v.1.15,2013-01-18 03:37:00,
2013-01-17 22:42:00,20.0,9.1,30.20,North,32767,0.0,0.0,62,0.00,,,0.00,0,Wunderground v.1.15,2013-01-18 03:42:00,
2013-01-17 22:47:00,20.1,9.2,30.20,North,32767,0.0,0.0,62,0.00,,,0.00,0,Wunderground v.1.15,2013-01-18 03:47:00,
2013-01-17 22:52:00,20.2,9.2,30.19,North,32767,0.0,0.0,62,0.00,,,0.00,0,Wunderground v.1.15,2013-01-18 03:52:00,
2013-01-17 22:57:00,20.2,9.2,30.19,North,32767,0.0,0.0,62,0.00,,,0.00,0,Wunderground v.1.15,2013-01-18 03:57:00,
2013-01-17 23:02:00,20.2,8.9,30.19,North,32767,0.0,0.0,61,0.00,,,0.00,0,Wunderground v.1.15,2013-01-18 04:02:00,
2013-01-17 23:07:00,20.2,9.2,30.19,North,32767,0.0,0.0,62,0.00,,,0.00,0,Wunderground v.1.15,2013-01-18 04:07:00,
2013-01-17 23:13:00,20.2,9.2,30.19,North,32767,0.0,0.0,62,0.00,,,0.00,0,Wunderground v.1.15,2013-01-18 04:13:00,
2013-01-17 23:18:00,20.1,9.5,30.19,North,32767,0.0,0.0,63,0.00,,,0.00,0,Wunderground v.1.15,2013-01-18 04:18:00,
2013-01-17 23:23:00,20.0,9.1,30.19,North,32767,0.0,0.0,62,0.00,,,0.00,0,Wunderground v.1.15,2013-01-18 04:23:00,
2013-01-17 23:28:00,20.0,9.4,30.20,North,32767,0.0,0.0,63,0.00,,,0.00,0,Wunderground v.1.15,2013-01-18 04:28:00,
2013-01-17 23:33:00,19.9,9.3,30.19,North,32767,0.0,0.0,63,0.00,,,0.00,0,Wunderground v.1.15,2013-01-18 04:33:00,
2013-01-17 23:38:00,19.9,9.3,30.20,North,32767,0.0,0.0,63,0.00,,,0.00,0,Wunderground v.1.15,2013-01-18 04:38:00,
2013-01-17 23:43:00,19.9,9.7,30.20,North,32767,0.0,0.0,64,0.00,,,0.00,0,Wunderground v.1.15,2013-01-18 04:43:00,
2013-01-17 23:48:00,19.8,9.9,30.20,North,32767,0.0,0.0,65,0.00,,,0.00,0,Wunderground v.1.15,2013-01-18 04:48:00,
2013-01-17 23:53:00,19.8,9.6,30.20,North,32767,0.0,0.0,64,0.00,,,0.00,0,Wunderground v.1.15,2013-01-18 04:53:00,
2013-01-17 23:58:00,19.8,9.9,30.20,North,32767,0.0,0.0,65,0.00,,,0.00,0,Wunderground v.1.15,2013-01-18 04:58:00,